Regional Weather Roundup
Issued by NWS Boston, MA

Current Version | Previous Version | Text Only | Print | Product List | Glossary Off
Versions: 1 2 3 4 5 6 7 8 9 10 11 12 13 14 15 16 17 18 19 20 21 22 23 24 25 26 27 28 29 30 31 32 33 34 35 36 37 38 39 40 41 42 43 44 45 46 47 48 49 50
159 ASUS41 KBOX 281910 RWRBOX REGIONAL WEATHER ROUNDUP NATIONAL WEATHER SERVICE TAUNTON MA 300 PM EDT SUN AUG 28 2016 NOTE: "FAIR" INDICATES FEW OR NO CLOUDS BELOW 12,000 FEET WITH NO SIGNIFICANT WEATHER AND/OR OBSTRUCTIONS TO VISIBILITY. MAZALL-282000- EASTERN MASSACHUSETTS CITY SKY/WX TMP DP RH WIND PRES REMARKS BOSTON MOSUNNY 76 62 62 E21 30.22F BEVERLY SUNNY 77 59 53 SE14 30.22F LAWRENCE MOSUNNY 85 60 42 VRB7 30.22F BEDFORD SUNNY 86 56 35 SE9 30.19F BLUE HILL N/A 83 57 41 VRB3 30.22F NORWOOD SUNNY 88 59 37 VRB5 30.20F MARSHFIELD SUNNY 79 63 57 E8G15 30.23F PLYMOUTH SUNNY 81 59 47 E9 30.24F TAUNTON SUNNY 87 58 37 SE5 30.20F NEW BEDFORD SUNNY 85 59 41 SE12 30.22S $$ MAZALL-282000- CAPE COD AND THE ISLANDS CITY SKY/WX TMP DP RH WIND PRES REMARKS FALMOUTH SUNNY 81 64 57 SE8G15 30.24S HYANNIS SUNNY 79 61 53 SE12 30.23S CHATHAM SUNNY 74 62 66 E8 30.26F PROVINCETOWN SUNNY 79 65 62 SE8 30.25F NANTUCKET SUNNY 75 62 64 E10 30.24F MARTHAS VNYRD SUNNY 81 62 52 E9 30.24F $$ MAZALL-282000- CENTRAL AND WESTERN MASSACHUSETTS CITY SKY/WX TMP DP RH WIND PRES REMARKS WORCESTER SUNNY 80 58 46 S10 30.25F FITCHBURG SUNNY 87 58 37 SW8 30.21F ORANGE SUNNY 84 61 45 S10G17 30.20F SPRINGFIELD SUNNY 87 62 43 S17 30.18F WESTFIELD SUNNY 88 61 40 S16G22 30.18F NORTH ADAMS SUNNY 84 61 45 VRB6 30.18F PITTSFIELD SUNNY 82 60 47 SW12 30.21F $$ RIZALL-282000- RHODE ISLAND CITY SKY/WX TMP DP RH WIND PRES REMARKS PROVIDENCE MOSUNNY 85 58 39 S8 30.23F NEWPORT SUNNY 81 56 42 S9 30.23F BLOCK ISLAND SUNNY 78 59 51 SE8 N/A WESTERLY SUNNY 80 56 43 S8 30.25F $$ CTZALL-282000- CONNECTICUT CITY SKY/WX TMP DP RH WIND PRES REMARKS BRADLEY INTL MOSUNNY 87 63 44 S13 30.20F HARTFORD SUNNY 88 62 41 S7 30.19F BRIDGEPORT SUNNY 83 65 54 SE7 30.23F DANBURY SUNNY 83 63 50 S7 30.23F GROTON SUNNY 80 61 52 S9 30.23F NEW HAVEN MOSUNNY 82 62 50 SE7 30.23F CHESTER FAIR 82 59 44 S7G13 30.24F MERIDEN SUNNY 86 57 37 S9 30.21F WILLIMANTIC SUNNY 86 61 42 W7 30.22F OXFORD MOSUNNY 82 61 47 SW7 30.27F $$ MEZ002-015-021-024-NHZ003-005-008-011-012-014-VTZ005-008-282000- NORTHERN NEW ENGLAND CITY SKY/WX TMP DP RH WIND PRES REMARKS PORTLAND ME PTSUNNY 77 61 57 S14G20 30.22F BANGOR ME PTSUNNY 74 58 57 S13 30.22F CONCORD NH MOSUNNY 87 60 40 S9G17 30.19F MANCHESTER NH MOSUNNY 85 57 38 SW8 30.18F NASHUA NH MOSUNNY 86 61 42 SW8 30.19F PORTSMOUTH NH MOSUNNY 78 59 51 SE14 30.20F JAFFREY NH SUNNY 82 58 43 S10 30.23F KEENE NH SUNNY 85 64 49 SW15 30.19F BURLINGTON VT PTSUNNY 86 65 49 S14G22 30.08F MT. WASHINGTON FOG 56 55 99 SW20G32 N/A VSB 1/8 $$ NYZ052-076-282000- EASTERN NEW YORK CITY SKY/WX TMP DP RH WIND PRES REMARKS ALBANY MOSUNNY 87 63 44 S10G17 30.15F NEW YORK CITY MOSUNNY 87 57 35 S8 30.21F $$ ANZALL-282000- MARINE OBSERVATIONS STATION/POSITION TIME TEMP WIND PRES VSBY WAVE AIR SEA DIR/SP/G HT/PER (UTC) (F) (DEG/KT/KT) (MB) (MI) (FT/S) BOSTON BUOY 1850 71 71 110/ 10/ 12 1023.6F 1/ 8 BUZZARDS BAY 1800 74 140/ 3/ 3 1024.6F NANTUCKET SOUND 1850 70 75 80/ 10/ 12 1024.1S 1/ 8 MASS BAY-STELLWA 1804 71 70 120/ 10/ 12 1024.1F 1 7/8 1/ 8 ISLE OF SHOALS 1900 69 140/ 18/ 19 1022.7F S OF BLOCK IS 1825 76 N/A 2/15 $$ ......................KEY......................... SKY/WX - SKY CONDITION/PRESENT WEATHER TMP - TEMPERATURE IN FAHRENHEIT DWPT - DEWPOINT IN FAHRENHEIT RH - RELATIVE HUMIDITY IN PERCENT WIND - DIRECTION AND SPEED IN MPH PRES - MEAN SEA LEVEL PRESSURE IN INCHES OF HG WCI - WIND CHILL INDEX VSB - VISIBILITY IN MILES HX - HEAT INDEX TC - TEMPERATURE IN CELSIUS VRB - VARIABLE WIND DIRECTION N/A - NOT AVAILABLE

USA.gov is the U.S. government's official web portal to all federal, state and local government web resources and services.